Powrót do katalogu

CZ-4 DEB

AktywnySSO
NORAD 20974·DEBRIS·🇨🇳 China

Wystrzelony Sep 3, 1990 z Taiyuan Satellite Launch Center

Loading…

Następne Przeloty (najbliższe 24 godziny)

TLE

ŚwieżeSource: Space-Track

Epoka: Sep 14, 2026, 10:55 UTC

1 20974U 90081CG  26257.45543785  .00000950  00000-0  34927-3 0  9995
2 20974  98.5677 255.6625 0015496  75.0345  80.3682 14.34889014862551

Śledź CZ-4 DEB w czasie rzeczywistym z AllMySat

Download on the App Store